This is the latest recevied weather packets stored in our database for station/object SQ9RHX-13. If no packets are shown the sender has not sent any weather packets the latest 1 day(s).
| Time | Temp. | Humidity | Pressure | Rain* | Wind** | Luminosity | Snow |
|---|---|---|---|---|---|---|---|
| 1836274682 | 12.78° C | 98% | 1025.4 hPa | 0 mm | 0 m/s | 0 W/m² | - |
| 1836274529 | 12.22° C | 98% | 1025.2 hPa | 0 mm | 0 m/s | 0 W/m² | - |
| 1836274380 | 12.78° C | 98% | 1025.3 hPa | 0 mm | 0 m/s | 0 W/m² | - |
| 1836274230 | 12.78° C | 98% | 1025.3 hPa | 0 mm | 0 m/s | 0 W/m² | - |
| 1836274079 | 12.22° C | 98% | 1025.5 hPa | 0 mm | 0 m/s | 0 W/m² | - |
| 1778019604 | 12.78° C | 86% | 1009.4 hPa | 0 mm | 0 m/s | 0 W/m² | - |
| 1778019305 | 12.78° C | 85% | 1009.4 hPa | 0 mm | 0 m/s | 0 W/m² | - |
| 1778019002 | 13.33° C | 84% | 1009.3 hPa | 0 mm | 0 m/s | 0 W/m² | - |
| 1778018704 | 13.33° C | 83% | 1009.2 hPa | 0 mm | 0 m/s | 0 W/m² | - |
| 1778018402 | 13.89° C | 81% | 1009.3 hPa | 0 mm | 0 m/s | 0 W/m² | - |
| 1778018106 | 14.44° C | 79% | 1009.5 hPa | 0 mm | 0 m/s | 0 W/m² | - |
| 1778017803 | 14.44° C | 78% | 1009.4 hPa | 0 mm | 0 m/s | 0 W/m² | - |
| 1778017504 | 15° C | 77% | 1009.7 hPa | 0 mm | 0 m/s | 0 W/m² | - |
| 1778017204 | 15° C | 77% | 1009.4 hPa | 0 mm | 0 m/s | 0 W/m² | - |
| 1778016903 | 15° C | 77% | 1009.6 hPa | 0 mm | 0 m/s | 0 W/m² | - |
| 1778016605 | 15.56° C | 76% | 1009.6 hPa | 0 mm | 0 m/s | 0 W/m² | - |
| 1778016308 | 15.56° C | 76% | 1009.4 hPa | 0 mm | 0.45 m/s, 30° | 0 W/m² | - |
| 1778016005 | 16.11° C | 75% | 1009.5 hPa | 0 mm | 0 m/s | 0 W/m² | - |
| 1778015703 | 16.11° C | 75% | 1009.5 hPa | 0 mm | 0 m/s | 0 W/m² | - |
| 1778015404 | 16.11° C | 75% | 1009.4 hPa | 0 mm | 0 m/s | 0 W/m² | - |
| 1778015103 | 16.11° C | 74% | 1009.2 hPa | 0 mm | 0.45 m/s, 13° | 0 W/m² | - |
| 1778014802 | 16.67° C | 74% | 1009.4 hPa | 0 mm | 0 m/s | 0 W/m² | - |
| 1778014502 | 16.67° C | 74% | 1009.3 hPa | 0 mm | 0 m/s | 0 W/m² | - |
| 1778014202 | 16.67° C | 74% | 1009.4 hPa | 0 mm | 0.89 m/s, 27° | 0 W/m² | - |
| 1778013903 | 16.67° C | 73% | 1009.5 hPa | 0 mm | 0.89 m/s, 16° | 0 W/m² | - |
* Rain latest hour (hover to see other rain measurements)
** Current wind speed in m/s (hover to see current wind gust speed)